[[{"header":{"parameterUnit":"m.s-1","parameterCategory":1,"la1":30.2991,"la2":30.254,"lo1":-89.0895,"lo2":-89.0444,"dy":0.0017,"dx":0.0017,"nx":28,"ny":28,"refTime":"2024-03-14T09:00:00:Z","depth":0,"parameterNumber":2,"parameterNumberName":"U-component_of_WINDS"},"data":[0,0,0,0,0,0,0,0,0,0,0,0,0,0,0,0,0,0,0,0,0,0,0,0,0,0,0,0,0,0,0,0,0,0,0,0,0,0,0,0,0,0,0,0,0,0,0,0,0,0,0,0,0,0,0,0,0,0,-2.6916,-2.6917,0,-2.7007,-2.7008,-2.7009,-2.6993,-2.6992,-2.699,-2.6989,-2.7084,-2.7088,-2.7092,0,0,0,0,0,0,0,0,0,0,0,0,0,-2.6729,-2.6732,-2.6916,-2.6917,-2.6918,-2.7007,-2.7008,-2.701,-2.6994,-2.6992,-2.699,-2.6988,-2.7082,-2.7087,-2.7092,0,0,0,0,0,0,0,0,0,0,0,0,0,-2.6814,-2.6733,-2.6915,-2.6921,-2.6922,-2.7007,-2.7008,-2.701,-2.6994,-2.6992,-2.6989,-2.6987,-2.7081,-2.7087,-2.7093,-2.7178,0,0,-2.7111,-2.7114,0,0,0,0,0,0,0,0,-2.6809,-2.6821,-2.6919,-2.692,-2.6922,-2.6986,-2.6977,-2.7066,-2.6995,-2.6967,-2.6989,-2.6986,-2.7053,-2.7062,-2.7084,-2.7183,-2.7187,-2.7112,-2.7115,-2.7118,-2.712,0,0,0,0,0,0,0,-2.6803,-2.6817,-2.6952,-2.692,-2.6922,-2.6919,-2.6929,-2.6994,-2.7023,-2.6969,-2.6968,-2.6979,-2.7054,-2.7078,-2.7086,-2.7188,-2.7112,-2.7117,-2.7121,-2.7123,-2.7362,-2.7365,0,0,0,0,0,0,-2.6796,-2.6812,-2.6949,-2.6955,-2.6859,-2.6924,-2.6935,-2.6968,-2.7022,-2.7028,-2.6981,-2.6978,-2.7069,-2.7079,-2.709,-2.7193,-2.7118,-2.7124,-2.7127,-2.736,-2.7363,-2.7366,0,0,0,0,0,0,-2.6792,-2.6808,-2.6945,-2.6883,-2.69,-2.693,-2.6968,-2.6971,-2.6996,-2.7031,-2.7036,-2.7001,-2.7068,-2.7081,-2.7156,-2.7196,-2.7126,-2.7132,-2.7356,-2.7361,-2.7364,-2.7401,0,0,0,0,0,0,-2.6786,-2.6807,-2.6839,-2.6884,-2.6904,-2.701,-2.697,-2.6975,-2.7006,-2.7003,-2.7051,-2.7056,-2.7067,-2.7147,-2.7162,-2.7203,-2.7137,-2.7353,-2.7358,-2.7363,-2.7396,-2.7406,-2.7414,0,0,0,0,0,-2.678,-2.6846,-2.6841,-2.6857,-2.6945,-2.7012,-2.7024,-2.7034,-2.7009,-2.7042,-2.7065,-2.7055,-2.719,-2.7155,-2.7172,-2.7215,-2.735,-2.7357,-2.7363,-2.7392,-2.7404,-2.7413,0,0,0,0,0,0,-2.6805,-2.6852,-2.6847,-2.6929,-2.6967,-2.701,-2.7051,-2.7046,-2.7092,-2.7087,-2.7099,-2.711,-2.7186,-2.7208,-2.7169,-2.7301,-2.7267,-2.7276,-2.7283,-2.7295,-2.7303,-2.7296,-2.7142,0,0,0,0,0,-2.682,-2.6871,-2.6909,-2.6979,-2.6998,-2.7022,-2.7051,-2.7056,-2.7096,-2.7112,-2.714,-2.7179,-2.7231,-2.7264,-2.7313,-2.74,-2.741,-2.7438,-2.7447,-2.7454,-2.7462,-2.7509,-2.7521,-2.7386,-2.7386,-2.7386,0,0,-2.6852,-2.6884,-2.6915,-2.6984,-2.7014,-2.7067,-2.7035,-2.7092,-2.7131,-2.7121,-2.7193,-2.7215,-2.726,-2.7341,-2.7379,-2.7362,-2.7501,-2.7461,-2.7467,-2.7471,-2.7516,-2.7529,-2.7541,-2.739,-2.7389,-2.7389,0,0,-2.6937,-2.6966,-2.7027,-2.7057,-2.7103,-2.7118,-2.7133,-2.7177,-2.7191,-2.7264,-2.7257,-2.7305,-2.7393,-2.7425,-2.7452,-2.755,-2.7542,-2.7566,-2.7611,-2.7657,-2.7668,-2.7677,-2.7712,-2.7724,-2.7574,-2.7574,-2.7574,0,-2.6971,-2.7049,-2.7059,-2.7116,-2.7147,-2.714,-2.7202,-2.7231,-2.7291,-2.7312,-2.7293,-2.7404,-2.7433,-2.7522,-2.7546,-2.7569,-2.7586,-2.756,-2.7666,-2.7675,-2.7684,-2.7717,-2.773,-2.7577,-2.7577,-2.7576,-2.7576,0,-2.7088,-2.7142,-2.7186,-2.7243,-2.7279,-2.7338,-2.7358,-2.7393,-2.7395,-2.7413,-2.7488,-2.7523,-2.7579,-2.7601,-2.7604,-2.769,-2.7678,-2.7663,-2.7628,-2.7699,-2.773,-2.7743,-2.758,-2.758,-2.7579,-2.7578,0,0,-2.719,-2.7252,-2.7268,-2.7293,-2.7343,-2.7386,-2.7446,-2.75,-2.753,-2.7572,-2.7621,-2.7697,-2.7682,-2.7714,-2.7721,-2.7761,-2.7836,-2.774,-2.7741,-2.7756,-2.7932,-2.7943,-2.7957,-2.7831,-2.7834,-2.7836,-2.7928,0,-2.7278,-2.7382,-2.7393,-2.7486,-2.7537,-2.7532,-2.7584,-2.762,-2.7639,-2.7685,-2.7705,-2.7758,-2.7736,-2.7755,-2.7795,-2.7818,-2.7871,-2.7812,-2.7878,-2.788,-2.7865,-2.7974,-2.7985,-2.8071,-2.794,-2.7943,-2.7944,0,-2.7395,-2.7439,-2.7537,-2.758,-2.7602,-2.7648,-2.7699,-2.7743,-2.7785,-2.7795,-2.7831,-2.7833,-2.7895,-2.7859,-2.7944,-2.7904,-2.7932,-2.7947,-2.7951,-2.7956,-2.7915,-2.7981,-2.8098,-2.811,-2.7963,-2.7962,-2.796,0,-2.7458,-2.7542,-2.7612,-2.7634,-2.7686,-2.7719,-2.7743,-2.7782,-2.7814,-2.7859,-2.788,-2.7932,-2.796,-2.8001,-2.8016,-2.7989,-2.8101,-2.8066,-2.8111,-2.8111,-2.8134,-2.8132,-2.8256,-2.8154,-2.8154,-2.8154,-2.8153,0,-2.7555,-2.7614,-2.7641,-2.7683,-2.775,-2.7763,-2.783,-2.7852,-2.7887,-2.7934,-2.7934,-2.7978,-2.7997,-2.8045,-2.8058,-2.8126,-2.8139,-2.815,-2.8152,-2.8149,-2.8147,-2.8166,-2.816,-2.8157,-2.8156,-2.8156,-2.8155,0,-2.7636,-2.7656,-2.7731,-2.7774,-2.7787,-2.7834,-2.7872,-2.7913,-2.7932,-2.7991,-2.8006,-2.8035,-2.8091,-2.8111,-2.818,-2.8189,-2.8268,-2.8266,-2.8253,-2.8253,-2.8297,-2.8292,-2.8436,-2.8456,-2.8342,-2.8343,-2.8344,0,-2.7695,-2.7741,-2.779,-2.7821,-2.7845,-2.7896,-2.7929,-2.7944,-2.7978,-2.8029,-2.8065,-2.8121,-2.8165,-2.8256,-2.8283,-2.8335,-2.8334,-2.8381,-2.8342,-2.8337,-2.8334,-2.833,-2.8335,-2.8388,-2.8389,-2.839,-2.8391,0,-2.7799,-2.7807,-2.7853,-2.7904,-2.7943,-2.7984,-2.8023,-2.8049,-2.8071,-2.8109,-2.8166,-2.8201,-2.8271,-2.8326,-2.838,-2.8405,-2.8401,-2.8403,-2.8416,-2.8413,-2.8403,-2.8408,-2.8272,-2.8399,-2.8399,-2.8398,-2.8397,-2.8397,-2.787,-2.7911,-2.7951,-2.8003,-2.8035,-2.8072,-2.8113,-2.8136,-2.8184,-2.8241,-2.8248,-2.8309,-2.8351,-2.8422,-2.845,-2.8498,-2.8485,-2.8504,-2.8509,-2.8513,-2.8516,-2.8396,-2.8508,-2.8508,-2.8508,-2.8508,-2.8508,0,-2.7973,-2.7999,-2.8047,-2.8102,-2.8143,-2.8137,-2.8181,-2.8216,-2.8269,-2.8308,-2.8352,-2.8418,-2.8472,-2.8504,-2.8558,-2.8591,-2.8591,-2.8604,-2.8601,-2.8607,-2.8525,-2.8508,-2.8604,-2.8604,-2.8603,-2.8603,-2.8603,-2.8603,-2.8031,-2.8099,-2.8111,-2.8195,-2.8221,-2.828,-2.8306,-2.834,-2.8371,-2.8444,-2.8489,-2.8509,-2.8546,-2.8602,-2.8652,-2.866,-2.8679,-2.8694,-2.8701,-2.8623,-2.8613,-2.8604,-2.8587,-2.8698,-2.8699,-2.8779,-2.878,-2.878]},{"header":{"parameterUnit":"m.s-1","parameterCategory":1,"la1":30.2991,"la2":30.254,"lo1":-89.0895,"lo2":-89.0444,"dy":0.0017,"dx":0.0017,"nx":28,"ny":28,"refTime":"2024-03-14T09:00:00:Z","depth":0,"parameterNumber":3,"parameterNumberName":"V-component_of_WINDS"},"data":[0,0,0,0,0,0,0,0,0,0,0,0,0,0,0,0,0,0,0,0,0,0,0,0,0,0,0,0,0,0,0,0,0,0,0,0,0,0,0,0,0,0,0,0,0,0,0,0,0,0,0,0,0,0,0,0,0,0,0.8274,0.8274,0,0.8274,0.8274,0.8274,0.8248,0.8248,0.8247,0.8246,0.8247,0.8247,0.8248,0,0,0,0,0,0,0,0,0,0,0,0,0,0.8251,0.8251,0.8274,0.8274,0.8274,0.8274,0.8274,0.8274,0.8248,0.8247,0.8247,0.8246,0.8246,0.8247,0.8248,0,0,0,0,0,0,0,0,0,0,0,0,0,0.8257,0.8252,0.8274,0.8261,0.826,0.8274,0.8274,0.8274,0.8249,0.8247,0.8246,0.8245,0.8246,0.8247,0.8248,0.8275,0,0,0.8251,0.8251,0,0,0,0,0,0,0,0,0.8257,0.8258,0.8263,0.8262,0.826,0.826,0.8266,0.8274,0.8249,0.8253,0.8246,0.8245,0.8252,0.8252,0.8255,0.8275,0.8275,0.8251,0.8252,0.8252,0.8252,0,0,0,0,0,0,0,0.8256,0.8258,0.8274,0.8263,0.8261,0.8255,0.8255,0.8268,0.8258,0.8252,0.825,0.8251,0.8251,0.8254,0.8255,0.8275,0.8251,0.8252,0.8253,0.8253,0.8318,0.8319,0,0,0,0,0,0,0.8258,0.8257,0.8274,0.8274,0.8256,0.8257,0.8256,0.8261,0.8258,0.8256,0.8252,0.825,0.8253,0.8253,0.8254,0.8286,0.8252,0.8253,0.8254,0.8317,0.8319,0.832,0,0,0,0,0,0,0.8257,0.8259,0.8274,0.8265,0.8267,0.8258,0.8264,0.8262,0.8265,0.8258,0.8256,0.8256,0.8252,0.8253,0.827,0.8286,0.8254,0.8254,0.8316,0.8318,0.8319,0.835,0,0,0,0,0,0,0.8257,0.8259,0.8269,0.8266,0.8267,0.829,0.8265,0.8263,0.8266,0.8264,0.8261,0.826,0.8251,0.8269,0.8271,0.8287,0.8255,0.8314,0.8317,0.8319,0.8348,0.8353,0.8357,0,0,0,0,0,0.8256,0.8277,0.827,0.8272,0.8279,0.829,0.8291,0.8281,0.8268,0.8278,0.8273,0.826,0.8284,0.8271,0.8273,0.8289,0.8313,0.8316,0.8319,0.8345,0.8352,0.8357,0,0,0,0,0,0,0.8283,0.8277,0.8268,0.8289,0.8291,0.8286,0.8298,0.8288,0.8293,0.829,0.8277,0.8276,0.8296,0.8294,0.828,0.8316,0.8296,0.83,0.8316,0.8322,0.8326,0.8326,0.8256,0,0,0,0,0,0.8291,0.83,0.8295,0.8314,0.8315,0.8307,0.8311,0.8303,0.8304,0.8304,0.8301,0.8303,0.8311,0.8316,0.8323,0.8347,0.8347,0.836,0.8364,0.8368,0.8371,0.8385,0.8391,0.8328,0.8328,0.8328,0,0,0.8308,0.8306,0.8313,0.8319,0.8319,0.833,0.8307,0.8319,0.8327,0.8306,0.8322,0.832,0.8321,0.8342,0.8351,0.8342,0.8388,0.8371,0.8375,0.8375,0.8388,0.8394,0.8399,0.833,0.833,0.8329,0,0,0.8345,0.8344,0.8361,0.8362,0.8362,0.8357,0.8361,0.8358,0.8356,0.8372,0.8358,0.8367,0.838,0.8382,0.8384,0.8424,0.8412,0.8426,0.845,0.8464,0.8469,0.8473,0.8488,0.8493,0.8429,0.8429,0.8429,0,0.8367,0.8382,0.837,0.8384,0.8387,0.837,0.8386,0.8388,0.8391,0.8394,0.8383,0.84,0.8399,0.8421,0.8431,0.8433,0.8438,0.8426,0.8469,0.8473,0.8477,0.8491,0.8496,0.8431,0.8431,0.843,0.843,0,0.8408,0.8419,0.8432,0.8436,0.8441,0.8456,0.8448,0.8454,0.8446,0.8442,0.8459,0.8458,0.8464,0.8469,0.8461,0.849,0.8484,0.8471,0.8451,0.8485,0.8498,0.8503,0.8433,0.8433,0.8432,0.8432,0,0,0.8461,0.846,0.8465,0.8467,0.8467,0.8475,0.849,0.8496,0.8503,0.8506,0.8518,0.853,0.8519,0.8522,0.8514,0.8526,0.8558,0.8512,0.8512,0.8521,0.8591,0.8601,0.8607,0.855,0.8551,0.8552,0.8591,0,0.8497,0.8522,0.8513,0.8538,0.8549,0.8533,0.8546,0.8547,0.8544,0.8553,0.8549,0.8558,0.8542,0.8544,0.8555,0.8552,0.8572,0.8549,0.8562,0.8562,0.8562,0.8613,0.8624,0.866,0.8596,0.8597,0.8597,0,0.8543,0.8548,0.8575,0.8574,0.8578,0.859,0.8596,0.8604,0.8606,0.8603,0.8607,0.8597,0.8612,0.8592,0.8613,0.8597,0.8602,0.8601,0.8603,0.8604,0.8582,0.8616,0.8672,0.8678,0.8605,0.8604,0.8604,0,0.8579,0.8593,0.8611,0.8613,0.8613,0.8622,0.8622,0.8623,0.8628,0.8634,0.8637,0.8644,0.8648,0.8654,0.8647,0.8633,0.8668,0.8648,0.8667,0.8667,0.8675,0.8674,0.8732,0.8677,0.8677,0.8677,0.8677,0,0.8621,0.8638,0.8628,0.8639,0.8658,0.8648,0.8667,0.8665,0.8667,0.8678,0.8664,0.8675,0.8664,0.8673,0.8667,0.8686,0.8687,0.8686,0.8684,0.8687,0.8687,0.869,0.8688,0.8679,0.8678,0.8678,0.8678,0,0.8665,0.8659,0.8677,0.8676,0.8676,0.869,0.8689,0.87,0.8696,0.871,0.8713,0.8707,0.8718,0.8711,0.8721,0.8717,0.8742,0.8736,0.8741,0.874,0.8759,0.8757,0.8821,0.8829,0.8769,0.8769,0.877,0,0.8692,0.8705,0.8705,0.8712,0.8713,0.8723,0.8729,0.872,0.8726,0.873,0.874,0.875,0.8757,0.8775,0.8772,0.878,0.8775,0.8797,0.8776,0.878,0.8776,0.8776,0.8777,0.8801,0.8802,0.8803,0.8803,0,0.874,0.8737,0.8746,0.8754,0.8761,0.8766,0.8771,0.8777,0.8768,0.8776,0.8787,0.8793,0.8804,0.8814,0.8822,0.8822,0.8811,0.881,0.8814,0.8818,0.8821,0.882,0.8753,0.8808,0.8808,0.8807,0.8807,0.8807,0.8777,0.8788,0.8791,0.8801,0.8804,0.8808,0.8819,0.8817,0.8826,0.8835,0.8829,0.8842,0.8845,0.8854,0.8856,0.8866,0.8857,0.8864,0.8866,0.8868,0.8871,0.8819,0.8867,0.8867,0.8867,0.8867,0.8867,0,0.8826,0.8827,0.8836,0.8844,0.8852,0.8842,0.8846,0.8854,0.8866,0.887,0.8877,0.8891,0.8901,0.8899,0.8908,0.8917,0.8912,0.892,0.8919,0.892,0.8878,0.8873,0.8923,0.8923,0.8923,0.8923,0.8923,0.8923,0.8852,0.8871,0.8868,0.8888,0.8889,0.8902,0.8906,0.8911,0.8914,0.8929,0.8938,0.8937,0.8938,0.8948,0.8957,0.8956,0.896,0.8969,0.8967,0.8928,0.8922,0.8917,0.8912,0.897,0.897,0.9008,0.9008,0.9008]}]]